Cincinnati, OH

12:25 PM EDT on July 27, 2016 (GMT -0400)
Newport Aquarium | | Change Station

Elev 499 ft 39.09 °N, 84.50 °W | Updated 1 minute ago

Mostly Cloudy
Mostly Cloudy
88.2 °F
Feels Like 93 °F
N
1.0
Wind Variable Wind from ESE
Gusts 1.0 mph

Today
High -- | Low -- °F
--% Chance of Precip.
Yesterday
High -- | Low -- °F
Precip. -- in
Pressure 30.00 in
Visibility 10.0 miles
Clouds Mostly Cloudy 2200 ft
Mostly Cloudy 2800 ft
Mostly Cloudy 5500 ft
Heat Index 93 °F
Dew Point 70 °F
Humidity 54%
Rainfall 0.00 in
Snow Depth Not available.
6:34 AM 8:53 PM
Last Quarter, 42% visible
METAR KLUK 271553Z 00000KT 10SM BKN022 BKN028 BKN055 29/23 A3001 RMK AO2 SLP158 T02890233
Pressure 30.00 in
Visibility 10.0 miles
Clouds Mostly Cloudy 2200 ft
Mostly Cloudy 2800 ft
Mostly Cloudy 5500 ft
Heat Index 93 °F
Dew Point 70 °F
Humidity 54%
Rainfall 0.00 in
Snow Depth Not available.
6:34 AM 8:53 PM
Last Quarter, 42% visible
METAR KLUK 271553Z 00000KT 10SM BKN022 BKN028 BKN055 29/23 A3001 RMK AO2 SLP158 T02890233

10-Day Weather Forecast

Almanac

Astronomy

Jul. 27, 2016 Rise Set
Actual Time
Civil Twilight
Nautical Twilight
Astronomical Twilight
Moon
Length of Visible Light
Length of Day
Tomorrow will be .
, % of the Moon is Illuminated

Today's Extremes

State Highs State Lows

Community

WunderPhotos

Upload Photos

1,927,880 photos uploaded!

WunderBlog® & News

Nearby

Air Quality

  Air Quality AQ Index Pollutant
Not available.

Snow Depth

Station Depth Elevation

Earthquake Activity

City Distance Mag. Time & Date
Minimum magnitude displayed is 2.5.

Coastal Water Temperatures

Place Temperature

Stations

Nearby Weather Stations

Station Location Temp. Windchill Dew Point Humidity Wind Precip. Elev Updated Type
                   

Watches & Warnings

There are currently no watches in effect.